[[{"header":{"parameterUnit":"m.s-1","parameterCategory":1,"la1":30.2991,"la2":30.254,"lo1":-89.0895,"lo2":-89.0444,"dy":0.0017,"dx":0.0017,"nx":28,"ny":28,"refTime":"2024-08-05T21:00:00:Z","depth":0,"parameterNumber":2,"parameterNumberName":"U-component_of_WINDS"},"data":[0,0,0,0,0,0,0,0,0,0,0,0,0,0,0,0,0,0,0,0,0,0,0,0,0,0,0,0,0,0,0,0,0,0,0,0,0,0,0,0,0,0,0,0,0,0,0,0,0,0,0,0,0,0,0,0,0,0,2.4941,2.4941,0,2.4995,2.4995,2.4996,2.497,2.4968,2.4967,2.4966,2.5019,2.5021,2.5024,0,0,0,0,0,0,0,0,0,0,0,0,0,2.4814,2.4817,2.4941,2.4941,2.4942,2.4995,2.4995,2.4996,2.497,2.4968,2.4967,2.4965,2.5018,2.5021,2.5024,0,0,0,0,0,0,0,0,0,0,0,0,0,2.4869,2.4817,2.4941,2.4935,2.4936,2.4994,2.4995,2.4996,2.497,2.4968,2.4966,2.4964,2.5017,2.5021,2.5025,2.5091,0,0,2.5037,2.5039,0,0,0,0,0,0,0,0,2.4866,2.4873,2.4936,2.4936,2.4936,2.4973,2.497,2.5028,2.4971,2.4957,2.4966,2.4963,2.5005,2.501,2.5025,2.5094,2.5096,2.5038,2.504,2.5042,2.5043,0,0,0,0,0,0,0,2.4862,2.4871,2.4962,2.4936,2.4937,2.493,2.4936,2.4981,2.4992,2.4958,2.4956,2.4963,2.5005,2.5021,2.5026,2.5097,2.5038,2.5041,2.5044,2.5045,2.5225,2.5227,0,0,0,0,0,0,2.4858,2.4868,2.496,2.4964,2.4895,2.4934,2.494,2.4963,2.4992,2.4994,2.4965,2.4962,2.5015,2.5021,2.5028,2.5109,2.5042,2.5046,2.5048,2.5223,2.5226,2.5228,0,0,0,0,0,0,2.4856,2.4867,2.4958,2.4915,2.4926,2.4938,2.4965,2.4966,2.4982,2.4997,2.4998,2.4979,2.5014,2.5022,2.5076,2.511,2.5047,2.5051,2.522,2.5224,2.5227,2.527,0,0,0,0,0,0,2.4852,2.4866,2.4892,2.4916,2.4929,2.5006,2.4967,2.4968,2.4989,2.4985,2.5011,2.5013,2.5013,2.507,2.508,2.5114,2.5054,2.5217,2.5222,2.5226,2.5266,2.5275,2.5283,0,0,0,0,0,2.4848,2.4901,2.4893,2.4904,2.4961,2.5008,2.5015,2.5015,2.4992,2.5017,2.5027,2.5012,2.5105,2.5076,2.5087,2.5123,2.5215,2.522,2.5226,2.5262,2.5273,2.5282,0,0,0,0,0,0,2.4879,2.4904,2.4896,2.4958,2.4982,2.5004,2.5036,2.5026,2.5056,2.5051,2.5049,2.5054,2.5111,2.5122,2.509,2.519,2.5156,2.5164,2.518,2.5191,2.5199,2.5195,2.5058,0,0,0,0,0,2.4893,2.493,2.4949,2.5003,2.5015,2.5024,2.5044,2.5042,2.5066,2.5075,2.5089,2.5112,2.5147,2.5169,2.5202,2.5267,2.5273,2.5298,2.5306,2.5313,2.5319,2.5356,2.5368,2.5246,2.5246,2.5245,0,0,2.4923,2.4941,2.4964,2.501,2.5027,2.5065,2.5032,2.5073,2.5102,2.5081,2.5134,2.5145,2.5171,2.5232,2.5259,2.5243,2.5355,2.5319,2.5325,2.5328,2.5363,2.5375,2.5385,2.5249,2.5248,2.5248,0,0,2.4996,2.5013,2.506,2.5079,2.5107,2.5113,2.5124,2.5149,2.5156,2.5209,2.5195,2.5228,2.5287,2.5307,2.5324,2.5407,2.5395,2.5418,2.5461,2.5497,2.5507,2.5516,2.5546,2.5557,2.5424,2.5425,2.5425,0,2.5029,2.5086,2.5086,2.5129,2.515,2.5134,2.5182,2.52,2.5237,2.5252,2.5233,2.5308,2.5324,2.539,2.5411,2.5425,2.5438,2.5415,2.5506,2.5514,2.5522,2.5551,2.5563,2.5427,2.5427,2.5427,2.5426,0,2.5126,2.5166,2.5201,2.5238,2.5263,2.5308,2.5314,2.5339,2.5335,2.5343,2.5398,2.5417,2.5454,2.5469,2.5465,2.5535,2.5524,2.5506,2.5472,2.5537,2.5564,2.5575,2.5431,2.543,2.5429,2.5429,0,0,2.522,2.5257,2.527,2.5288,2.5318,2.5349,2.5394,2.5431,2.5453,2.5479,2.5517,2.5568,2.5552,2.5572,2.557,2.5602,2.5668,2.5579,2.558,2.5596,2.5747,2.5762,2.5774,2.5659,2.5662,2.5663,2.5746,0,2.5296,2.5375,2.5377,2.5449,2.5487,2.5474,2.5513,2.5536,2.5545,2.5578,2.5587,2.5624,2.5599,2.5611,2.5642,2.5653,2.5698,2.5647,2.5695,2.5697,2.5689,2.5788,2.5803,2.588,2.5756,2.5758,2.5759,0,2.5395,2.5426,2.5503,2.553,2.5546,2.5581,2.5616,2.5647,2.5673,2.5678,2.5701,2.5695,2.5741,2.5706,2.577,2.5735,2.5755,2.5764,2.5767,2.5771,2.5732,2.5796,2.5904,2.5916,2.5776,2.5774,2.5773,0,2.5457,2.5518,2.5572,2.5587,2.5619,2.5645,2.5659,2.5683,2.5706,2.5736,2.5751,2.5786,2.5805,2.5833,2.5836,2.5811,2.5901,2.5866,2.5906,2.5906,2.5926,2.5925,2.6039,2.5938,2.5938,2.5937,2.5937,0,2.5543,2.559,2.5601,2.5634,2.5688,2.5689,2.5742,2.5754,2.5776,2.5812,2.5802,2.5835,2.5838,2.5873,2.5876,2.5929,2.5937,2.5942,2.5942,2.5943,2.5943,2.5956,2.5951,2.594,2.594,2.5939,2.5939,0,2.5621,2.5629,2.5688,2.5714,2.5722,2.576,2.5782,2.5815,2.5823,2.5868,2.5879,2.5892,2.5933,2.5939,2.5986,2.5988,2.6052,2.6047,2.6044,2.6043,2.6083,2.608,2.6211,2.6228,2.6115,2.6116,2.6117,0,2.5675,2.5712,2.5742,2.5766,2.5782,2.582,2.5844,2.5847,2.5872,2.5905,2.5934,2.5973,2.6005,2.6071,2.6084,2.6121,2.6116,2.616,2.6122,2.6122,2.6118,2.6116,2.612,2.6167,2.6168,2.6169,2.617,0,2.577,2.5773,2.5808,2.5845,2.5874,2.5903,2.593,2.595,2.5957,2.5985,2.6027,2.6052,2.6101,2.6141,2.6178,2.6192,2.6183,2.6182,2.6193,2.6195,2.6192,2.6195,2.6065,2.6179,2.6178,2.6177,2.6177,2.6177,2.5839,2.5872,2.5899,2.5938,2.5959,2.5986,2.6018,2.6031,2.6066,2.6107,2.6106,2.6153,2.6179,2.6227,2.6244,2.6281,2.6267,2.6283,2.6287,2.6291,2.6296,2.6186,2.6287,2.6287,2.6287,2.6287,2.6286,0,2.5935,2.5952,2.5988,2.6028,2.6059,2.6048,2.6078,2.6105,2.6146,2.6172,2.6204,2.6253,2.6292,2.6309,2.6348,2.6374,2.637,2.6384,2.6382,2.6386,2.6305,2.6292,2.6386,2.6386,2.6386,2.6386,2.6386,2.6386,2.5989,2.6044,2.605,2.6116,2.6133,2.6179,2.6197,2.6221,2.6242,2.6297,2.633,2.6342,2.6364,2.6405,2.644,2.6444,2.6459,2.6475,2.6477,2.6402,2.6391,2.6382,2.6369,2.6478,2.6478,2.6555,2.6555,2.6556]},{"header":{"parameterUnit":"m.s-1","parameterCategory":1,"la1":30.2991,"la2":30.254,"lo1":-89.0895,"lo2":-89.0444,"dy":0.0017,"dx":0.0017,"nx":28,"ny":28,"refTime":"2024-08-05T21:00:00:Z","depth":0,"parameterNumber":3,"parameterNumberName":"V-component_of_WINDS"},"data":[0,0,0,0,0,0,0,0,0,0,0,0,0,0,0,0,0,0,0,0,0,0,0,0,0,0,0,0,0,0,0,0,0,0,0,0,0,0,0,0,0,0,0,0,0,0,0,0,0,0,0,0,0,0,0,0,0,0,-1.2805,-1.2805,0,-1.2812,-1.2812,-1.2812,-1.2806,-1.2805,-1.2805,-1.2805,-1.2813,-1.2813,-1.2814,0,0,0,0,0,0,0,0,0,0,0,0,0,-1.2788,-1.2788,-1.2805,-1.2805,-1.2805,-1.2812,-1.2812,-1.2812,-1.2806,-1.2805,-1.2805,-1.2805,-1.2813,-1.2813,-1.2814,0,0,0,0,0,0,0,0,0,0,0,0,0,-1.2795,-1.2788,-1.2805,-1.2803,-1.2803,-1.2812,-1.2812,-1.2812,-1.2806,-1.2805,-1.2805,-1.2804,-1.2812,-1.2813,-1.2814,-1.2826,0,0,-1.2816,-1.2816,0,0,0,0,0,0,0,0,-1.2795,-1.2796,-1.2803,-1.2803,-1.2803,-1.2807,-1.2809,-1.2817,-1.2806,-1.2805,-1.2805,-1.2804,-1.2811,-1.2812,-1.2814,-1.2826,-1.2827,-1.2816,-1.2816,-1.2817,-1.2817,0,0,0,0,0,0,0,-1.2794,-1.2795,-1.2808,-1.2803,-1.2803,-1.2802,-1.2802,-1.281,-1.281,-1.2805,-1.2804,-1.2805,-1.2811,-1.2814,-1.2814,-1.2827,-1.2816,-1.2816,-1.2817,-1.2817,-1.285,-1.2851,0,0,0,0,0,0,-1.2794,-1.2795,-1.2808,-1.2808,-1.2798,-1.2802,-1.2803,-1.2806,-1.281,-1.281,-1.2805,-1.2805,-1.2813,-1.2814,-1.2815,-1.2829,-1.2817,-1.2817,-1.2818,-1.285,-1.285,-1.2851,0,0,0,0,0,0,-1.2793,-1.2795,-1.2807,-1.2801,-1.2803,-1.2803,-1.2807,-1.2807,-1.2809,-1.2811,-1.2811,-1.2808,-1.2812,-1.2814,-1.2823,-1.283,-1.2817,-1.2818,-1.2849,-1.285,-1.285,-1.2859,0,0,0,0,0,0,-1.2793,-1.2795,-1.2799,-1.2801,-1.2803,-1.2815,-1.2807,-1.2807,-1.281,-1.2809,-1.2813,-1.2813,-1.2812,-1.2822,-1.2824,-1.283,-1.2819,-1.2848,-1.2849,-1.285,-1.2858,-1.286,-1.2861,0,0,0,0,0,-1.2792,-1.2801,-1.2799,-1.2801,-1.2808,-1.2816,-1.2817,-1.2815,-1.2811,-1.2815,-1.2816,-1.2813,-1.2829,-1.2823,-1.2825,-1.2832,-1.2848,-1.2849,-1.285,-1.2857,-1.2859,-1.2861,0,0,0,0,0,0,-1.2799,-1.2801,-1.2799,-1.2809,-1.2812,-1.2814,-1.282,-1.2817,-1.2822,-1.2821,-1.282,-1.2821,-1.2831,-1.2832,-1.2826,-1.2844,-1.2838,-1.2839,-1.2843,-1.2845,-1.2846,-1.2845,-1.2819,0,0,0,0,0,-1.2802,-1.2807,-1.2809,-1.2817,-1.2819,-1.2819,-1.2822,-1.2821,-1.2825,-1.2826,-1.2828,-1.2832,-1.2837,-1.2841,-1.2847,-1.2859,-1.286,-1.2864,-1.2866,-1.2867,-1.2868,-1.2875,-1.2878,-1.2854,-1.2854,-1.2854,0,0,-1.2807,-1.2809,-1.2812,-1.2819,-1.2821,-1.2827,-1.282,-1.2827,-1.2832,-1.2827,-1.2836,-1.2838,-1.2842,-1.2853,-1.2858,-1.2855,-1.2875,-1.2869,-1.287,-1.287,-1.2877,-1.2879,-1.2881,-1.2855,-1.2855,-1.2855,0,0,-1.282,-1.2822,-1.2829,-1.2832,-1.2836,-1.2836,-1.2838,-1.2841,-1.2842,-1.2851,-1.2848,-1.2854,-1.2864,-1.2867,-1.287,-1.2886,-1.2883,-1.2888,-1.2896,-1.2903,-1.2905,-1.2907,-1.2912,-1.2914,-1.2889,-1.2889,-1.2889,0,-1.2826,-1.2835,-1.2833,-1.284,-1.2844,-1.284,-1.2848,-1.2851,-1.2856,-1.2859,-1.2855,-1.2869,-1.2871,-1.2883,-1.2887,-1.289,-1.2892,-1.2887,-1.2905,-1.2906,-1.2908,-1.2913,-1.2915,-1.289,-1.289,-1.289,-1.289,0,-1.2842,-1.2848,-1.2854,-1.2859,-1.2863,-1.2871,-1.2871,-1.2876,-1.2875,-1.2876,-1.2886,-1.2889,-1.2895,-1.2898,-1.2897,-1.291,-1.2908,-1.2905,-1.2898,-1.2911,-1.2916,-1.2918,-1.2891,-1.2891,-1.289,-1.289,0,0,-1.2858,-1.2864,-1.2866,-1.2868,-1.2873,-1.2878,-1.2886,-1.2892,-1.2896,-1.29,-1.2907,-1.2917,-1.2914,-1.2917,-1.2917,-1.2923,-1.2935,-1.2919,-1.2919,-1.2922,-1.2951,-1.2953,-1.2955,-1.2934,-1.2935,-1.2935,-1.295,0,-1.2871,-1.2884,-1.2884,-1.2896,-1.2902,-1.29,-1.2907,-1.291,-1.2912,-1.2918,-1.292,-1.2926,-1.2922,-1.2924,-1.293,-1.2933,-1.2941,-1.2932,-1.2941,-1.2941,-1.2939,-1.2958,-1.296,-1.2974,-1.2952,-1.2952,-1.2953,0,-1.2887,-1.2892,-1.2905,-1.2909,-1.2912,-1.2918,-1.2924,-1.293,-1.2935,-1.2936,-1.294,-1.2939,-1.2948,-1.2942,-1.2954,-1.2948,-1.2952,-1.2953,-1.2954,-1.2954,-1.2947,-1.2958,-1.2978,-1.298,-1.2956,-1.2956,-1.2955,0,-1.2897,-1.2907,-1.2916,-1.2919,-1.2924,-1.2929,-1.2931,-1.2936,-1.294,-1.2946,-1.2949,-1.2956,-1.2959,-1.2965,-1.2966,-1.2961,-1.2979,-1.2972,-1.298,-1.298,-1.2983,-1.2982,-1.3003,-1.2986,-1.2986,-1.2986,-1.2986,0,-1.2911,-1.2919,-1.2921,-1.2926,-1.2936,-1.2936,-1.2945,-1.2948,-1.2952,-1.2958,-1.2957,-1.2964,-1.2965,-1.2972,-1.2973,-1.2983,-1.2985,-1.2986,-1.2986,-1.2986,-1.2986,-1.2988,-1.2987,-1.2987,-1.2987,-1.2986,-1.2986,0,-1.2923,-1.2925,-1.2935,-1.2939,-1.2941,-1.2947,-1.2952,-1.2958,-1.296,-1.2968,-1.297,-1.2973,-1.2981,-1.2983,-1.2993,-1.2994,-1.3006,-1.3005,-1.3004,-1.3004,-1.3011,-1.301,-1.3033,-1.3037,-1.3018,-1.3018,-1.3018,0,-1.2932,-1.2938,-1.2943,-1.2947,-1.295,-1.2957,-1.2961,-1.2963,-1.2967,-1.2974,-1.2979,-1.2987,-1.2993,-1.3006,-1.301,-1.3018,-1.3017,-1.3025,-1.3018,-1.3018,-1.3017,-1.3016,-1.3017,-1.3026,-1.3026,-1.3026,-1.3026,0,-1.2946,-1.2947,-1.2953,-1.296,-1.2965,-1.297,-1.2975,-1.2979,-1.2981,-1.2987,-1.2995,-1.3,-1.301,-1.3018,-1.3026,-1.3029,-1.3028,-1.3029,-1.3031,-1.303,-1.3029,-1.3029,-1.3007,-1.3028,-1.3028,-1.3027,-1.3027,-1.3027,-1.2957,-1.2962,-1.2967,-1.2974,-1.2978,-1.2983,-1.2989,-1.2992,-1.2999,-1.3007,-1.3008,-1.3016,-1.3023,-1.3033,-1.3037,-1.3045,-1.3042,-1.3045,-1.3046,-1.3047,-1.3047,-1.3028,-1.3046,-1.3046,-1.3046,-1.3046,-1.3046,0,-1.2971,-1.2974,-1.2981,-1.2988,-1.2994,-1.2993,-1.2999,-1.3004,-1.3011,-1.3017,-1.3023,-1.3033,-1.3042,-1.3046,-1.3055,-1.306,-1.306,-1.3062,-1.3061,-1.3062,-1.3049,-1.3046,-1.3062,-1.3062,-1.3062,-1.3062,-1.3062,-1.3062,-1.2979,-1.2988,-1.299,-1.3001,-1.3005,-1.3013,-1.3017,-1.3022,-1.3027,-1.3038,-1.3044,-1.3047,-1.3053,-1.3062,-1.307,-1.3071,-1.3074,-1.3077,-1.3078,-1.3065,-1.3063,-1.3061,-1.3059,-1.3077,-1.3077,-1.309,-1.309,-1.3091]}]]